Selinsgrove, PA

2:01 AM EDT on September 27, 2016 (GMT -0400)
Penn Valley

Weather History for KSEG - May, 2014

Change the Weather History Date:

Tuesday, May 13, 2014

  Actual Average (KIPT) Record (KIPT)
Temperature  
Mean Temperature 73 °F 59 °F  
Max Temperature 89 °F 71 °F 90 °F (1991)
Min Temperature 57 °F 47 °F 30 °F (1941)
Degree Days  
Heating Degree Days 0 7  
Month to date heating degree days 112  
Since 1 July heating degree days 5867  
Cooling Degree Days 8 1  
Month to date cooling degree days 8  
Year to date cooling degree days 13  
Growing Degree Days 23 (Base 50)    
Moisture  
Dew Point 58 °F    
Average Humidity 65    
Maximum Humidity 93    
Minimum Humidity 36    
Precipitation  
Precipitation 0.00 in 0.12 in 1.54 in (2002)
Month to date precipitation 1.48  
Year to date precipitation 12.73  
Snow  
Snow 0.00 in 0.00 in 0.00 in (2002)
Month to date snowfall 0.0  
Since 1 July snowfall 36.0  
Snow Depth -    
Sea Level Pressure  
Sea Level Pressure 30.09 in    
Wind  
Wind Speed 4 mph (SE)    
Max Wind Speed 17 mph    
Max Gust Speed 23 mph    
Visibility 9 miles    
Events      
T = Trace of Precipitation, MM = Missing Value Source: NWS Daily Summary

Daily Weather History Graph

Daily Weather History Graph

Search for Another Location

Airport or City:

Trip Planner

Search our weather history database for the weather conditions in past years. The results will help you decide how hot, cold, wet, or windy it might be!

Date:

Astronomy

May. 13, 2014 Rise Set
Actual Time 5:52 AM EDT 8:16 PM EDT
Civil Twilight 5:21 AM EDT 8:47 PM EDT
Nautical Twilight 4:42 AM EDT 9:25 PM EDT
Astronomical Twilight 4:00 AM EDT 10:08 PM EDT
Moon 7:14 PM EDT (5/13) 5:07 AM EDT (5/13)
Length of Visible Light 15h 25m
Length of Day
14h 24m
Waxing Gibbous, 98% of the Moon is Illuminated
May 13
Waxing Gibbous
May 14
Full
May 21
Last Quarter
May 28
New
Jun 5
First Quarter

Hourly Weather History & Observations

Time (EDT) Temp. Heat Index Dew Point Humidity Pressure Visibility Wind Dir Wind Speed Gust Speed Precip Events Conditions
12:53 AM 59.0 °F - 57.0 °F 93% 30.06 in 8.0 mi Calm Calm - N/A   Clear
2:53 AM 57.9 °F - 55.9 °F 93% 30.05 in 7.0 mi Calm Calm - N/A   Clear
3:53 AM 57.0 °F - 55.0 °F 93% 30.05 in 6.0 mi Calm Calm - N/A   Clear
4:53 AM 57.9 °F - 55.9 °F 93% 30.06 in 6.0 mi Calm Calm - N/A   Clear
5:53 AM 57.9 °F - 55.9 °F 93% 30.08 in 6.0 mi South 3.5 mph - N/A   Clear
6:53 AM 60.1 °F - 57.9 °F 93% 30.09 in 5.0 mi WNW 4.6 mph - N/A   Clear
7:53 AM 63.0 °F - 59.0 °F 87% 30.12 in 7.0 mi Calm Calm - N/A   Clear
9:53 AM 71.1 °F - 61.0 °F 70% 30.13 in 10.0 mi East 3.5 mph - N/A   Clear
10:53 AM 75.9 °F - 62.1 °F 62% 30.13 in 10.0 mi ENE 4.6 mph - N/A   Clear
12:53 PM 81.0 °F 81.7 °F 61.0 °F 50% 30.12 in 10.0 mi Calm Calm - N/A   Mostly Cloudy
1:53 PM 84.0 °F 84.0 °F 60.1 °F 44% 30.10 in 10.0 mi Variable 3.5 mph - N/A   Clear
2:53 PM 88.0 °F 87.1 °F 59.0 °F 37% 30.08 in 10.0 mi SSE 11.5 mph - N/A   Clear
3:53 PM 89.1 °F 88.2 °F 59.0 °F 36% 30.05 in 10.0 mi South 6.9 mph - N/A   Clear
4:53 PM 89.1 °F 89.0 °F 61.0 °F 39% 30.04 in 10.0 mi SSE 8.1 mph - N/A   Clear
5:53 PM 86.0 °F 87.3 °F 64.0 °F 48% 30.04 in 10.0 mi SSE 13.8 mph - N/A   Clear
6:53 PM 82.0 °F 83.1 °F 63.0 °F 52% 30.07 in 10.0 mi SSE 17.3 mph 23.0 mph N/A   Clear
7:53 PM 77.0 °F - 59.0 °F 54% 30.09 in 10.0 mi SE 15.0 mph - N/A   Clear
8:53 PM 73.0 °F - 55.0 °F 53% 30.12 in 10.0 mi SSE 8.1 mph - N/A   Clear
9:53 PM 70.0 °F - 53.1 °F 55% 30.14 in 10.0 mi SE 6.9 mph - N/A   Clear
10:53 PM 66.0 °F - 52.0 °F 60% 30.16 in 10.0 mi East 6.9 mph - N/A   Clear
11:53 PM 64.9 °F - 48.0 °F 54% 30.18 in 10.0 mi ESE 10.4 mph - N/A   Clear